PROBA-2 (36037 NORAD) Tracking and Keplerian Element Data

This shows tracking and keplerian element data for the satellite.

Feedback or suggestion? Click here.




ElementValue
Catalog36037
NamePROBA-2
Epoch Orbit46145
Epoch Day198.55639733
Epoch Year2018
RAAN30.5135
Inclination98.2417
Eccentricity0.0013025
Argument of Perigee193.4717
Mean Anonmoly166.6133
Mean Motion14.53043742
Decay Rate0
L11 36037U 09059B 18198.55639733 .00000000 00000-0 10891-4 0 9993
L22 36037 98.2417 30.5135 0013025 193.4717 166.6133 14.53043742461451

Live tracking and technical data element details for PROBA-2 (NORAD 36037). PROBA-2 can be tracked NOW for your location showing map with azimuth and elevation plus other details from your city location.

Track the satellite on the map from your city or location and see movement details for azimuth, elevation, latitude, longitude, range, height, and movement on the map or in text.







IsCatalogInMostPopularTable: catalog: 36037, numindb: 34
Update: records affected: 1



GetName: 36037 PROBA-2

Hit Count: updated at: Thu, 19 Jul 2018 03:54:27 GMT